Location: Unspecified
(54.1780°N, 0.0000°E)
Time: 02:58:20
(UTC+00:00)

Altair - Pass Details

Date: 18 June 2019
Orbit: 1501 x 1683 km, 47.2° (Epoch: 12 October)

Event Time Altitude Azimuth Distance (km) Brightness Sun altitude
Rises 00:39:06 0° 268° (W) 4,820 10.0 -12.0°
Reaches altitude 10° 00:42:14 10° 265° (W) 3,857 9.4 -11.9°
Maximum altitude 00:51:48 57° 190° (S) 1,912 7.7 -11.7°
Drops below altitude 10° 01:01:35 10° 116° (ESE) 3,943 9.5 -11.3°
Sets 01:04:50 0° 113° (ESE) 4,933 10.1 -11.2°
